Weather History for KDVP - April, 2013

Change the Weather History Date:

Friday, April 19, 2013

  Actual Average (KOTG) Record (KOTG)
Temperature  
Mean Temperature 26 °F -  
Max Temperature 32 °F 55 °F 90 °F (1985)
Min Temperature 19 °F 35 °F 21 °F (2013)
Degree Days  
Heating Degree Days 39    
Moisture  
Dew Point 21 °F    
Average Humidity 81    
Maximum Humidity 96    
Minimum Humidity 67    
Precipitation  
Precipitation 0.00 in - - ()
Sea Level Pressure  
Sea Level Pressure 29.84 in    
Wind  
Wind Speed 22 mph (NW)    
Max Wind Speed 26 mph    
Max Gust Speed 36 mph    
Visibility 9 miles    
Events Snow    
Averages and records for this station are not official NWS values.
T = Trace of Precipitation, MM = Missing Value Source: NWS Daily Summary

Daily Weather History Graph

Daily Weather History Graph

Search for Another Location

Airport or City:

Trip Planner

Search our weather history database for the weather conditions in past years. The results will help you decide how hot, cold, wet, or windy it might be!

Date:

Astronomy

Apr. 19, 2013 Rise Set
Actual Time 6:32 AM CDT 8:12 PM CDT
Civil Twilight 6:02 AM CDT 8:42 PM CDT
Nautical Twilight 5:25 AM CDT 9:19 PM CDT
Astronomical Twilight 4:45 AM CDT 9:59 PM CDT
Moon 1:45 PM CDT (4/19) 3:01 AM CDT (4/19)
Length of Visible Light 14h 40m
Length of Day
13h 39m
First Quarter, 62% of the Moon is Illuminated
Apr 19
First Quarter
Apr 25
Full
May 2
Last Quarter
May 9
New
May 17
First Quarter

Hourly Weather History & Observations

Time (CDT) Temp. Windchill Dew Point Humidity Pressure Visibility Wind Dir Wind Speed Gust Speed Precip Events Conditions
12:15 AM 27.5 °F 12.6 °F 26.6 °F 96% 29.72 in 1.8 mi NW 25.3 mph 32.2 mph N/A Snow Light Snow
12:35 AM 27.1 °F 12.1 °F 26.2 °F 96% 29.71 in 1.5 mi NW 25.3 mph 35.7 mph N/A Snow Light Snow
12:55 AM 27.0 °F 12.2 °F 25.7 °F 95% 29.71 in 2.5 mi NW 24.2 mph 29.9 mph N/A   Overcast
1:15 AM 26.2 °F 11.2 °F 23.2 °F 88% 29.71 in 5.0 mi NW 24.2 mph - N/A   Overcast
1:35 AM 25.7 °F 10.8 °F 22.6 °F 88% 29.71 in 5.0 mi NW 23.0 mph 28.8 mph N/A   Mostly Cloudy
1:55 AM 25.2 °F 10.1 °F 21.9 °F 87% 29.70 in 5.0 mi NW 23.0 mph 29.9 mph N/A   Scattered Clouds
2:15 AM 24.8 °F 9.3 °F 21.7 °F 88% 29.70 in 7.0 mi NW 24.2 mph - N/A   Clear
2:35 AM 24.4 °F 8.8 °F 21.6 °F 89% 29.69 in 5.0 mi NW 24.2 mph 28.8 mph N/A   Clear
2:55 AM 24.6 °F 9.4 °F 21.2 °F 87% 29.69 in 7.0 mi NW 23.0 mph - N/A   Clear
3:15 AM 24.4 °F 8.5 °F 21.2 °F 87% 29.69 in 7.0 mi NW 25.3 mph - N/A   Clear
3:35 AM 23.9 °F 7.8 °F 20.8 °F 88% 29.69 in 5.0 mi NW 25.3 mph 31.1 mph N/A   Clear
3:54 AM 23.9 °F 8.1 °F 20.7 °F 87% 29.70 in 7.0 mi NW 24.2 mph 29.9 mph N/A   Clear
4:15 AM 23.5 °F 8.0 °F 20.3 °F 87% 29.70 in 10.0 mi NW 23.0 mph - N/A   Clear
4:35 AM 23.7 °F 7.5 °F 20.3 °F 87% 29.70 in 7.0 mi NW 25.3 mph 31.1 mph N/A   Clear
4:55 AM 22.6 °F 7.1 °F 19.4 °F 87% 29.70 in 10.0 mi WNW 21.9 mph - N/A   Clear
5:15 AM 22.6 °F 7.1 °F 19.4 °F 87% 29.70 in 10.0 mi NW 21.9 mph - N/A   Clear
5:35 AM 22.6 °F 7.5 °F 19.4 °F 87% 29.71 in 10.0 mi WNW 20.7 mph - N/A   Clear
5:55 AM 22.3 °F 7.0 °F 19.0 °F 87% 29.71 in 10.0 mi WNW 20.7 mph - N/A   Clear
6:14 AM 22.1 °F 6.4 °F 18.9 °F 87% 29.71 in 10.0 mi WNW 21.9 mph - N/A   Clear
6:35 AM 22.1 °F 6.4 °F 18.7 °F 87% 29.72 in 10.0 mi WNW 21.9 mph - N/A   Clear
6:55 AM 21.9 °F 6.9 °F 18.5 °F 87% 29.73 in 10.0 mi WNW 19.6 mph - N/A   Clear
7:15 AM 22.3 °F 6.6 °F 18.5 °F 85% 29.73 in 10.0 mi NW 21.9 mph - N/A   Clear
7:35 AM 23.0 °F 8.0 °F 19.0 °F 85% 29.74 in 10.0 mi WNW 20.7 mph - N/A   Clear
7:55 AM 23.9 °F 8.4 °F 19.8 °F 84% 29.74 in 10.0 mi NW 23.0 mph - N/A   Clear
8:15 AM 24.1 °F 9.8 °F 20.1 °F 85% 29.75 in 10.0 mi WNW 19.6 mph - N/A   Clear
8:34 AM 25.7 °F 10.8 °F 20.8 °F 82% 29.75 in 10.0 mi NW 23.0 mph - N/A   Clear
8:55 AM 27.0 °F 12.5 °F 21.2 °F 79% 29.75 in 10.0 mi NW 23.0 mph - N/A   Clear
9:15 AM 27.1 °F 12.7 °F 21.6 °F 80% 29.76 in 10.0 mi NW 23.0 mph - N/A   Clear
9:35 AM 27.5 °F 13.2 °F 22.1 °F 80% 29.76 in 10.0 mi NW 23.0 mph - N/A   Clear
9:55 AM 28.0 °F 13.3 °F 22.1 °F 78% 29.77 in 10.0 mi NW 25.3 mph - N/A   Clear
10:35 AM 28.8 °F 14.9 °F 22.8 °F 78% 29.79 in 10.0 mi NW 23.0 mph - N/A   Clear
10:55 AM 29.1 °F 14.8 °F 23.2 °F 78% 29.79 in 10.0 mi NW 25.3 mph - N/A   Clear
11:15 AM 29.3 °F 15.3 °F 23.5 °F 79% 29.80 in 10.0 mi NW 24.2 mph 29.9 mph N/A   Clear
11:35 AM 29.3 °F 15.6 °F 23.2 °F 78% 29.81 in 10.0 mi NW 23.0 mph 28.8 mph N/A   Clear
11:56 AM 30.0 °F 16.6 °F 23.5 °F 77% 29.82 in 10.0 mi NW 23.0 mph 31.1 mph N/A   Clear
12:15 PM 30.4 °F 17.3 °F 23.5 °F 76% 29.83 in 10.0 mi NW 21.9 mph 29.9 mph N/A   Scattered Clouds
12:35 PM 31.1 °F 18.0 °F 23.9 °F 75% 29.83 in 10.0 mi NW 23.0 mph - N/A   Scattered Clouds
12:55 PM 31.1 °F 18.0 °F 23.9 °F 75% 29.84 in 10.0 mi NW 23.0 mph 31.1 mph N/A   Scattered Clouds
1:15 PM 31.1 °F 18.0 °F 23.2 °F 72% 29.85 in 10.0 mi NW 23.0 mph 32.2 mph N/A   Clear
1:35 PM 31.1 °F 18.3 °F 23.5 °F 74% 29.86 in 10.0 mi NW 21.9 mph 29.9 mph N/A   Scattered Clouds
1:55 PM 31.8 °F 18.1 °F 23.9 °F 73% 29.86 in 10.0 mi NW 26.5 mph 32.2 mph N/A   Scattered Clouds
2:15 PM 31.5 °F 19.4 °F 23.2 °F 71% 29.87 in 10.0 mi NW 19.6 mph 33.4 mph N/A   Mostly Cloudy
2:34 PM 31.1 °F 17.4 °F 22.3 °F 70% 29.88 in 10.0 mi NW 25.3 mph 31.1 mph N/A   Scattered Clouds
2:55 PM 31.1 °F 18.3 °F 21.6 °F 68% 29.88 in 10.0 mi NW 21.9 mph 32.2 mph N/A   Clear
3:15 PM 31.5 °F 18.2 °F 22.5 °F 69% 29.89 in 10.0 mi NW 24.2 mph 29.9 mph N/A   Clear
3:35 PM 31.8 °F 18.4 °F 22.3 °F 68% 29.89 in 10.0 mi NW 25.3 mph 31.1 mph N/A   Clear
3:55 PM 32.0 °F 19.2 °F 22.1 °F 67% 29.90 in 10.0 mi NW 23.0 mph 31.1 mph N/A   Clear
4:15 PM 32.0 °F 19.8 °F 22.3 °F 67% 29.90 in 10.0 mi NW 20.7 mph 27.6 mph N/A   Clear
4:35 PM 32.0 °F 19.5 °F 22.5 °F 68% 29.91 in 10.0 mi NW 21.9 mph - N/A   Clear
4:54 PM 32.0 °F 19.5 °F 22.6 °F 68% 29.92 in 10.0 mi NW 21.9 mph 26.5 mph N/A   Clear
5:15 PM 32.0 °F 20.5 °F 23.2 °F 70% 29.93 in 10.0 mi NW 18.4 mph - N/A   Clear
5:35 PM 32.0 °F 19.8 °F 23.5 °F 71% 29.94 in 10.0 mi NW 20.7 mph - N/A   Clear
5:55 PM 31.6 °F 19.7 °F 22.6 °F 69% 29.95 in 10.0 mi NW 19.6 mph - N/A   Clear
6:15 PM 31.6 °F 19.0 °F 23.7 °F 73% 29.96 in 10.0 mi WNW 21.9 mph - N/A   Clear
6:35 PM 31.1 °F 18.9 °F 23.7 °F 74% 29.96 in 10.0 mi WNW 19.6 mph 24.2 mph N/A   Clear
6:55 PM 30.2 °F 17.8 °F 23.0 °F 75% 29.97 in 10.0 mi NW 19.6 mph 26.5 mph N/A   Clear
7:14 PM 29.7 °F 17.4 °F 23.0 °F 76% 29.98 in 10.0 mi NW 18.4 mph - N/A   Clear
7:35 PM 28.8 °F 17.9 °F 22.6 °F 78% 29.98 in 10.0 mi NW 13.8 mph - N/A   Clear
7:55 PM 27.5 °F 16.3 °F 22.6 °F 82% 29.99 in 10.0 mi NW 13.8 mph - N/A   Clear
8:15 PM 26.4 °F 16.6 °F 22.1 °F 84% 30.00 in 10.0 mi NW 10.4 mph - N/A   Clear
8:35 PM 25.3 °F 14.7 °F 21.6 °F 86% 30.00 in 10.0 mi NW 11.5 mph - N/A   Clear
8:55 PM 25.2 °F 14.4 °F 20.5 °F 82% 30.02 in 10.0 mi NW 11.5 mph - N/A   Clear
9:15 PM 23.9 °F 12.9 °F 19.6 °F 84% 30.03 in 10.0 mi WNW 11.5 mph - N/A   Clear
9:34 PM 23.5 °F 12.4 °F 19.6 °F 85% 30.04 in 10.0 mi WNW 11.5 mph - N/A   Clear
9:55 PM 22.6 °F 11.9 °F 18.5 °F 84% 30.05 in 10.0 mi WNW 10.4 mph - N/A   Clear
10:15 PM 21.6 °F 10.6 °F 17.6 °F 85% 30.05 in 10.0 mi WNW 10.4 mph - N/A   Clear
10:35 PM 20.8 °F 9.0 °F 17.2 °F 86% 30.05 in 10.0 mi NW 11.5 mph - N/A   Clear
10:55 PM 21.0 °F 9.9 °F 16.2 °F 81% 30.05 in 10.0 mi NW 10.4 mph - N/A   Clear
11:15 PM 20.7 °F 9.5 °F 15.6 °F 81% 30.05 in 10.0 mi WNW 10.4 mph - N/A   Clear
11:35 PM 19.6 °F 6.8 °F 15.3 °F 83% 30.06 in 10.0 mi WNW 12.7 mph - N/A   Clear